EW6055 Weather Reports


Display with metric or nautical units.
time (UTC)temp
F
wind
direction
speed
MPH
gust
MPH
rain 1hr
in
rain 24hr
in
rain mn
in
humidity
%
barometer
mb
20260831231003 85 173 0.0 1.0 0.00 0.00 0.00 38 1005.7
20260831230503 85 178 0.0 1.0 0.00 0.00 0.00 38 1005.6
20260831230024 85 180 0.0 2.0 0.00 0.00 0.00 38 1005.6
20260831225503 85 205 0.0 4.0 0.00 0.00 0.00 38 1005.7
20260831225003 85 217 0.0 4.0 0.00 0.00 0.00 38 1005.8
20260831224503 85 222 0.0 4.0 0.00 0.00 0.00 38 1005.8
20260831224003 84 116 0.0 2.0 0.00 0.00 0.00 39 1005.9
20260831223504 85 120 0.0 2.0 0.00 0.00 0.00 38 1005.9
20260831223003 85 142 0.0 1.0 0.00 0.00 0.00 39 1005.8
20260831222524 84 125 0.0 1.0 0.00 0.00 0.00 39 1005.8
20260831222003 84 236 0.0 2.0 0.00 0.00 0.00 39 1006.0
20260831221503 84 222 0.0 2.0 0.00 0.00 0.00 39 1006.0
20260831221003 84 187 0.0 1.0 0.00 0.00 0.00 39 1006.1
20260831220503 84 112 0.0 4.0 0.00 0.00 0.00 40 1006.1
20260831220003 84 140 0.0 4.0 0.00 0.00 0.00 39 1006.1
20260831215524 84 204 0.0 3.0 0.00 0.00 0.00 39 1006.2
20260831215003 84 172 0.0 2.0 0.00 0.00 0.00 39 1006.2
20260831214503 84 0 0.0 0.0 0.00 0.00 0.00 39 1006.3
20260831214003 84 194 0.0 6.0 0.00 0.00 0.00 39 1006.3
20260831213503 85 194 0.0 6.0 0.00 0.00 0.00 38 1006.4
20260831213003 85 0 0.0 0.0 0.00 0.00 0.00 37 1006.4
20260831212503 85 0 0.0 0.0 0.00 0.00 0.00 37 1006.5
20260831212024 85 278 0.0 1.0 0.00 0.00 0.00 37 1006.5
20260831211503 85 291 0.0 2.0 0.00 0.00 0.00 37 1006.5
20260831211024 85 296 0.0 2.0 0.00 0.00 0.00 38 1006.6
20260831210503 84 0 0.0 0.0 0.00 0.00 0.00 38 1006.7
20260831210003 84 0 0.0 0.0 0.00 0.00 0.00 38 1006.7
20260831205503 83 0 0.0 0.0 0.00 0.00 0.00 39 1006.7
20260831205003 83 0 0.0 0.0 0.00 0.00 0.00 39 1006.8
20260831204503 83 238 0.0 1.0 0.00 0.00 0.00 40 1006.8
20260831204003 82 262 0.0 3.0 0.00 0.00 0.00 41 1006.8
20260831203524 82 276 0.0 3.0 0.00 0.00 0.00 40 1006.8
20260831203003 82 272 0.0 1.0 0.00 0.00 0.00 41 1006.9
20260831202503 82 276 0.0 1.0 0.00 0.00 0.00 41 1007.0
20260831202003 82 325 0.0 2.0 0.00 0.00 0.00 40 1007.0
20260831201504 82 323 0.0 3.0 0.00 0.00 0.00 41 1007.1
20260831201003 82 321 0.0 3.0 0.00 0.00 0.00 42 1007.1
20260831200503 82 0 0.0 0.0 0.00 0.00 0.00 42 1007.1
20260831200024 81 0 0.0 0.0 0.00 0.00 0.00 43 1007.2
20260831195503 80 0 0.0 0.0 0.00 0.00 0.00 44 1007.3
20260831195003 79 301 0.0 5.0 0.00 0.00 0.00 45 1007.4
20260831194503 79 295 0.0 5.0 0.00 0.00 0.00 46 1007.5
20260831194003 79 281 0.0 2.0 0.00 0.00 0.00 46 1007.5
20260831193503 78 0 0.0 0.0 0.00 0.00 0.00 46 1007.6
20260831193003 78 0 0.0 0.0 0.00 0.00 0.00 48 1007.7
20260831192503 77 0 0.0 0.0 0.00 0.00 0.00 48 1007.7
20260831192024 77 294 0.0 3.0 0.00 0.00 0.00 49 1007.8
20260831191503 76 293 0.0 3.0 0.00 0.00 0.00 50 1007.9
20260831191003 76 0 0.0 0.0 0.00 0.00 0.00 51 1007.9
20260831190503 75 0 0.0 0.0 0.00 0.00 0.00 51 1007.9
20260831190003 75 0 0.0 0.0 0.00 0.00 0.00 54 1008.1
20260831185503 74 0 0.0 0.0 0.00 0.00 0.00 53 1008.1
20260831185003 73 0 0.0 0.0 0.00 0.00 0.00 55 1008.2
20260831184503 72 0 0.0 0.0 0.00 0.00 0.00 56 1008.3
20260831184003 72 328 0.0 2.0 0.00 0.00 0.00 55 1008.2
20260831183503 72 328 0.0 2.0 0.00 0.00 0.00 56 1008.3
20260831183003 72 330 0.0 1.0 0.00 0.00 0.00 57 1008.3
20260831182503 72 302 0.0 2.0 0.00 0.00 0.00 58 1008.4
20260831182003 72 296 0.0 2.0 0.00 0.00 0.00 57 1008.5
20260831181524 71 264 0.0 1.0 0.00 0.00 0.00 59 1008.5
20260831181003 71 0 0.0 0.0 0.00 0.00 0.00 59 1008.7
20260831180524 70 308 0.0 1.0 0.00 0.00 0.00 60 1008.7
20260831180003 70 276 0.0 1.0 0.00 0.00 0.00 60 1008.7
20260831175503 70 268 0.0 1.0 0.00 0.00 0.00 61 1008.7
20260831175003 70 0 0.0 0.0 0.00 0.00 0.00 61 1008.9
20260831174503 69 0 0.0 0.0 0.00 0.00 0.00 63 1008.9
20260831174003 69 288 0.0 1.0 0.00 0.00 0.00 64 1008.9
20260831173503 68 288 0.0 1.0 0.00 0.00 0.00 65 1009.0
20260831173024 67 0 0.0 0.0 0.00 0.00 0.00 65 1009.0
20260831172503 67 0 0.0 0.0 0.00 0.00 0.00 66 1009.0
20260831172003 66 57 0.0 1.0 0.00 0.00 0.00 69 1009.1
20260831171503 66 1 0.0 1.0 0.00 0.00 0.00 68 1009.1
20260831171003 66 328 0.0 1.0 0.00 0.00 0.00 70 1009.2
20260831170503 65 322 0.0 3.0 0.00 0.00 0.00 72 1009.2
20260831170003 64 322 0.0 3.0 0.00 0.00 0.00 72 1009.3
20260831165524 64 322 0.0 3.0 0.00 0.00 0.00 73 1009.2
20260831165003 64 0 0.0 0.0 0.00 0.00 0.00 74 1009.2
20260831164503 63 284 0.0 1.0 0.00 0.00 0.00 74 1009.2
20260831164003 63 284 0.0 1.0 0.00 0.00 0.00 75 1009.3
20260831163503 62 0 0.0 0.0 0.00 0.00 0.00 77 1009.3
20260831163003 62 0 0.0 0.0 0.00 0.00 0.00 78 1009.4
20260831162524 61 0 0.0 0.0 0.00 0.00 0.00 79 1009.4
20260831162003 61 0 0.0 0.0 0.00 0.00 0.00 81 1009.4
20260831161524 60 0 0.0 0.0 0.00 0.00 0.00 81 1009.5
20260831161003 60 0 0.0 0.0 0.00 0.00 0.00 82 1009.5
20260831160503 59 0 0.0 0.0 0.00 0.00 0.00 83 1009.5
20260831160003 59 0 0.0 0.0 0.00 0.00 0.00 84 1009.6
20260831155503 58 0 0.0 0.0 0.00 0.00 0.00 85 1009.6
20260831155003 58 0 0.0 0.0 0.00 0.00 0.00 85 1009.6
20260831154524 58 0 0.0 0.0 0.00 0.00 0.00 86 1009.6
20260831154003 58 335 0.0 3.0 0.00 0.00 0.00 86 1009.6
20260831153503 57 333 0.0 3.0 0.00 0.00 0.00 87 1009.6
20260831153003 57 324 0.0 2.0 0.00 0.00 0.00 88 1009.6
20260831152503 57 0 0.0 0.0 0.00 0.00 0.00 90 1009.6
20260831152003 56 0 0.0 0.0 0.00 0.00 0.00 90 1009.7
20260831151503 56 0 0.0 0.0 0.00 0.00 0.00 91 1009.7
20260831151003 56 0 0.0 0.0 0.00 0.00 0.00 92 1009.7
20260831150503 56 0 0.0 0.0 0.00 0.00 0.00 92 1009.8
20260831150003 55 0 0.0 0.0 0.00 0.00 0.00 93 1009.8
20260831145503 55 0 0.0 0.0 0.00 0.00 0.00 93 1009.8
20260831145003 54 0 0.0 0.0 0.00 0.00 0.00 93 1009.8
20260831144524 54 0 0.0 0.0 0.00 0.00 0.00 93 1009.8
20260831144003 53 0 0.0 0.0 0.00 0.00 0.00 93 1009.8
20260831143503 53 0 0.0 0.0 0.00 0.00 0.00 93 1009.8
20260831143003 53 0 0.0 0.0 0.00 0.00 0.00 92 1009.8
20260831142503 52 0 0.0 0.0 0.00 0.00 0.00 91 1009.8
20260831142024 52 0 0.0 0.0 0.00 0.00 0.00 91 1009.8
20260831141503 52 0 0.0 0.0 0.00 0.00 0.00 90 1009.8
20260831141003 52 0 0.0 0.0 0.00 0.00 0.00 89 1009.7
20260831140503 52 0 0.0 0.0 0.00 0.00 0.00 89 1009.8
20260831140003 52 0 0.0 0.0 0.00 0.00 0.00 89 1009.9
20260831135503 53 0 0.0 0.0 0.00 0.00 0.00 89 1009.9
20260831135003 53 0 0.0 0.0 0.00 0.00 0.00 88 1009.9
20260831134503 53 0 0.0 0.0 0.00 0.00 0.00 88 1009.9
20260831134003 53 0 0.0 0.0 0.00 0.00 0.00 87 1009.9
20260831133503 53 0 0.0 0.0 0.00 0.00 0.00 87 1009.9
20260831133003 54 0 0.0 0.0 0.00 0.00 0.00 87 1009.8
20260831132503 54 0 0.0 0.0 0.00 0.00 0.00 87 1009.9
20260831132024 54 0 0.0 0.0 0.00 0.00 0.00 87 1009.9
20260831131503 54 0 0.0 0.0 0.00 0.00 0.00 88 1010.0
20260831131024 54 0 0.0 0.0 0.00 0.00 0.00 87 1010.0
20260831130503 55 0 0.0 0.0 0.00 0.00 0.00 87 1009.9
20260831130024 55 0 0.0 0.0 0.00 0.00 0.00 87 1010.0
20260831125503 55 0 0.0 0.0 0.00 0.00 0.00 87 1010.0
20260831125003 55 0 0.0 0.0 0.00 0.00 0.00 87 1010.1
20260831124524 55 0 0.0 0.0 0.00 0.00 0.00 87 1010.1
20260831124003 55 0 0.0 0.0 0.00 0.00 0.00 87 1010.1
20260831123524 56 0 0.0 0.0 0.00 0.00 0.00 88 1010.1
20260831123003 56 0 0.0 0.0 0.00 0.00 0.00 88 1010.2
20260831122503 56 0 0.0 0.0 0.00 0.00 0.00 88 1010.2
20260831122003 56 0 0.0 0.0 0.00 0.00 0.00 88 1010.2
20260831121503 56 0 0.0 0.0 0.00 0.00 0.00 87 1010.3
20260831121003 56 0 0.0 0.0 0.00 0.00 0.00 87 1010.3
20260831120503 56 0 0.0 0.0 0.00 0.00 0.00 87 1010.2
20260831120003 56 0 0.0 0.0 0.00 0.00 0.00 87 1010.2
20260831115524 56 0 0.0 0.0 0.00 0.00 0.00 87 1010.3
20260831115003 57 0 0.0 0.0 0.00 0.00 0.00 87 1010.3
20260831114503 57 0 0.0 0.0 0.00 0.00 0.00 86 1010.4
20260831114003 57 0 0.0 0.0 0.00 0.00 0.00 86 1010.5
20260831113503 57 0 0.0 0.0 0.00 0.00 0.00 86 1010.5
20260831113003 57 0 0.0 0.0 0.00 0.00 0.00 86 1010.4
20260831112503 57 0 0.0 0.0 0.00 0.00 0.00 86 1010.5
20260831112003 57 0 0.0 0.0 0.00 0.00 0.00 86 1010.6
20260831111503 57 0 0.0 0.0 0.00 0.00 0.00 86 1010.6
20260831111003 57 0 0.0 0.0 0.00 0.00 0.00 86 1010.6
20260831110503 58 339 0.0 1.0 0.00 0.00 0.00 86 1010.6
20260831110004 58 339 0.0 1.0 0.00 0.00 0.00 86 1010.7
20260831105503 58 336 0.0 3.0 0.00 0.00 0.00 86 1010.6
20260831105003 58 336 0.0 3.0 0.00 0.00 0.00 85 1010.7
20260831104503 58 0 0.0 0.0 0.00 0.00 0.00 85 1010.7
20260831104003 58 0 0.0 0.0 0.00 0.00 0.00 85 1010.8
20260831103503 58 0 0.0 0.0 0.00 0.00 0.00 84 1010.7
20260831103003 58 0 0.0 0.0 0.00 0.00 0.00 84 1010.8
20260831102503 58 0 0.0 0.0 0.00 0.00 0.00 84 1010.8
20260831102003 58 0 0.0 0.0 0.00 0.00 0.00 84 1010.8
20260831101503 58 0 0.0 0.0 0.00 0.00 0.00 83 1010.9
20260831101003 59 0 0.0 0.0 0.00 0.00 0.00 83 1011.0
20260831100524 59 0 0.0 0.0 0.00 0.00 0.00 83 1010.9
20260831100003 59 0 0.0 0.0 0.00 0.00 0.00 83 1010.9
20260831095503 59 0 0.0 0.0 0.00 0.00 0.00 83 1011.0
20260831095003 59 24 0.0 1.0 0.00 0.00 0.00 83 1011.0
20260831094503 59 356 0.0 1.0 0.00 0.00 0.00 82 1011.1
20260831094003 59 329 0.0 2.0 0.00 0.00 0.00 82 1011.2
20260831093503 59 330 0.0 2.0 0.00 0.00 0.00 82 1011.2
20260831093024 59 0 0.0 0.0 0.00 0.00 0.00 82 1011.3
20260831092524 60 0 0.0 0.0 0.00 0.00 0.00 82 1011.4
20260831092003 60 323 0.0 1.0 0.00 0.00 0.00 81 1011.4
20260831091503 60 323 0.0 1.0 0.00 0.00 0.00 81 1011.4
20260831091003 60 348 0.0 1.0 0.00 0.00 0.00 81 1011.5
20260831090503 60 331 0.0 5.0 0.00 0.00 0.00 81 1011.5
20260831090003 60 330 0.0 5.0 0.00 0.00 0.00 81 1011.5
20260831085503 60 348 0.0 4.0 0.00 0.00 0.00 81 1011.5
20260831085003 60 348 0.0 4.0 0.00 0.00 0.00 81 1011.5
20260831084503 60 338 0.0 6.0 0.00 0.00 0.00 81 1011.6
20260831084003 60 334 0.0 6.0 0.00 0.00 0.00 81 1011.6
20260831083503 60 344 0.0 3.0 0.00 0.00 0.00 81 1011.6
20260831083003 60 337 0.0 5.0 0.00 0.00 0.00 80 1011.6
20260831082503 60 328 0.0 5.0 0.00 0.00 0.00 80 1011.7
20260831082003 60 0 0.0 0.0 0.00 0.00 0.00 80 1011.7
20260831081503 61 323 0.0 4.0 0.00 0.00 0.00 80 1011.8
20260831081003 61 323 0.0 4.0 0.00 0.00 0.00 79 1012.0
20260831080503 61 331 1.0 4.0 0.00 0.00 0.00 79 1012.0
20260831080003 61 331 1.0 4.0 0.00 0.00 0.00 79 1012.0
20260831075524 61 330 0.0 4.0 0.00 0.00 0.00 79 1012.1
20260831075003 61 0 0.0 0.0 0.00 0.00 0.00 79 1012.1
20260831074524 61 0 0.0 0.0 0.00 0.00 0.00 78 1012.2
20260831074024 61 345 0.0 1.0 0.00 0.00 0.00 78 1012.2
20260831073503 61 337 0.0 2.0 0.00 0.00 0.00 78 1012.2
20260831073024 61 336 0.0 2.0 0.00 0.00 0.00 78 1012.2
20260831072503 61 0 0.0 0.0 0.00 0.00 0.00 77 1012.3
20260831072024 61 0 0.0 0.0 0.00 0.00 0.00 77 1012.4
20260831071503 61 0 0.0 0.0 0.00 0.00 0.00 77 1012.4
20260831071024 61 341 0.0 1.0 0.00 0.00 0.00 76 1012.5
20260831070503 62 320 0.0 2.0 0.00 0.00 0.00 76 1012.6
20260831070024 62 318 0.0 2.0 0.00 0.00 0.00 76 1012.6
20260831065524 62 311 0.0 1.0 0.00 0.00 0.00 76 1012.6
20260831065003 62 0 0.0 0.0 0.00 0.00 0.00 75 1012.7
20260831064503 62 0 0.0 0.0 0.00 0.00 0.00 75 1012.8
20260831064003 62 0 0.0 0.0 0.00 0.00 0.00 74 1012.8
20260831063503 62 0 0.0 0.0 0.00 0.00 0.00 74 1012.8
20260831063024 62 0 0.0 0.0 0.00 0.00 0.00 74 1012.9
20260831062503 62 0 0.0 0.0 0.00 0.00 0.00 74 1012.9
20260831062003 62 0 0.0 0.0 0.00 0.00 0.00 74 1012.9
20260831061524 62 0 0.0 0.0 0.00 0.00 0.00 73 1013.0
20260831061003 62 0 0.0 0.0 0.00 0.00 0.00 73 1013.0
20260831060524 62 0 0.0 0.0 0.00 0.00 0.00 73 1013.0
20260831060003 62 0 0.0 0.0 0.00 0.00 0.00 73 1013.1
20260831055503 63 0 0.0 0.0 0.00 0.00 0.00 72 1013.1
20260831055024 63 0 0.0 0.0 0.00 0.00 0.00 72 1013.1
20260831054503 63 0 0.0 0.0 0.00 0.00 0.00 72 1013.2
20260831054003 63 0 0.0 0.0 0.00 0.00 0.00 72 1013.2
20260831053503 63 0 0.0 0.0 0.00 0.00 0.00 71 1013.2
20260831053003 63 0 0.0 0.0 0.00 0.00 0.00 71 1013.4
20260831052503 63 0 0.0 0.0 0.00 0.00 0.00 71 1013.4
20260831052024 63 0 0.0 0.0 0.00 0.00 0.00 70 1013.4
20260831051503 64 0 0.0 0.0 0.00 0.00 0.00 70 1013.5
20260831051024 64 0 0.0 0.0 0.00 0.00 0.00 70 1013.5
20260831050524 64 0 0.0 0.0 0.00 0.00 0.00 69 1013.5
20260831050003 64 0 0.0 0.0 0.00 0.00 0.00 69 1013.6
20260831045503 64 0 0.0 0.0 0.00 0.00 0.00 69 1013.7
20260831045003 64 0 0.0 0.0 0.00 0.00 0.00 69 1013.6
20260831044525 64 0 0.0 0.0 0.00 0.00 0.00 68 1013.7
20260831044003 64 0 0.0 0.0 0.00 0.00 0.00 68 1013.7
20260831043503 65 0 0.0 0.0 0.00 0.00 0.00 67 1013.7
20260831043003 65 0 0.0 0.0 0.00 0.00 0.00 67 1013.8
20260831042503 65 276 0.0 1.0 0.00 0.00 0.00 67 1013.8
20260831042003 65 276 0.0 1.0 0.00 0.00 0.00 66 1013.8
20260831041503 65 0 0.0 0.0 0.00 0.00 0.00 66 1013.8
20260831041003 65 0 0.0 0.0 0.00 0.00 0.00 65 1013.8
20260831040503 65 0 0.0 0.0 0.00 0.00 0.00 65 1013.9
20260831040003 66 0 0.0 0.0 0.00 0.00 0.00 65 1013.9
20260831035503 66 0 0.0 0.0 0.00 0.00 0.00 64 1013.9
20260831035003 66 0 0.0 0.0 0.00 0.00 0.00 64 1013.9
20260831034503 66 338 0.0 2.0 0.00 0.00 0.00 64 1013.9
20260831034024 66 338 0.0 2.0 0.00 0.00 0.00 63 1013.9
20260831033503 66 0 0.0 0.0 0.00 0.00 0.00 63 1013.9
20260831033003 66 0 0.0 0.0 0.00 0.00 0.00 62 1013.8
20260831032503 67 0 0.0 0.0 0.00 0.00 0.00 62 1013.9
20260831032003 67 292 0.0 1.0 0.00 0.00 0.00 61 1014.0
20260831031503 67 292 0.0 1.0 0.00 0.00 0.00 61 1013.9
20260831031003 67 0 0.0 0.0 0.00 0.00 0.00 60 1013.9
20260831030503 68 305 0.0 1.0 0.00 0.00 0.00 60 1013.9
20260831030003 68 305 0.0 1.0 0.00 0.00 0.00 59 1013.9
20260831025503 68 0 0.0 0.0 0.00 0.00 0.00 59 1014.0
20260831025024 68 0 0.0 0.0 0.00 0.00 0.00 58 1013.9
20260831024524 68 317 0.0 1.0 0.00 0.00 0.00 57 1014.0
20260831024004 69 317 0.0 1.0 0.00 0.00 0.00 57 1014.0
20260831023503 69 0 0.0 0.0 0.00 0.00 0.00 56 1014.0
20260831023003 70 313 0.0 1.0 0.00 0.00 0.00 56 1014.1
20260831022503 70 325 0.0 1.0 0.00 0.00 0.00 55 1014.1
20260831022024 70 343 0.0 1.0 0.00 0.00 0.00 54 1014.0
20260831021503 70 320 0.0 1.0 0.00 0.00 0.00 54 1014.0
20260831021003 71 304 0.0 3.0 0.00 0.00 0.00 53 1014.1
20260831020503 71 298 0.0 3.0 0.00 0.00 0.00 53 1014.1
20260831020003 71 332 0.0 2.0 0.00 0.00 0.00 52 1014.1
20260831015503 72 332 0.0 2.0 0.00 0.00 0.00 52 1014.1
20260831015001 72 0 0.0 0.0 0.00 0.00 0.00 52 1014.1
20260831014500 72 298 0.0 1.0 0.00 0.00 0.00 51 1014.2
20260831014022 72 297 0.0 1.0 0.00 0.00 0.00 51 1014.1
20260831013500 72 309 0.0 2.0 0.00 0.00 0.00 50 1014.2
20260831013001 72 323 0.0 4.0 0.00 0.00 0.00 49 1014.2
20260831012500 73 321 0.0 4.0 0.00 0.00 0.00 49 1014.3
20260831012000 73 328 0.0 3.0 0.00 0.00 0.00 48 1014.4
20260831011500 73 329 0.0 3.0 0.00 0.00 0.00 47 1014.4
20260831011000 73 331 0.0 3.0 0.00 0.00 0.00 46 1014.4
20260831010522 74 337 0.0 3.0 0.00 0.00 0.00 46 1014.5
20260831010000 74 9 0.0 1.0 0.00 0.00 0.00 45 1014.6
20260831005500 74 339 0.0 3.0 0.00 0.00 0.00 46 1014.7
20260831005001 74 299 0.0 3.0 0.00 0.00 0.00 46 1014.8
20260831004501 74 309 0.0 4.0 0.00 0.00 0.00 46 1014.8
20260831004022 74 334 0.0 4.0 0.00 0.00 0.00 46 1014.8
20260831003501 74 326 0.0 3.0 0.00 0.00 0.00 45 1014.8
20260831003000 74 325 0.0 3.0 0.00 0.00 0.00 45 1014.9
20260831002501 74 283 1.0 3.0 0.00 0.00 0.00 47 1014.9
20260831002000 74 285 1.0 4.0 0.00 0.00 0.00 47 1014.9
20260831001501 74 334 0.0 4.0 0.00 0.00 0.00 46 1015.0
20260831001000 75 307 0.0 3.0 0.00 0.00 0.00 44 1015.0
20260831000501 75 295 0.0 3.0 0.00 0.00 0.00 46 1014.9
20260831000001 74 300 0.0 3.0 0.00 0.00 0.00 46 1015.0
20260830235500 74 301 0.0 3.0 0.00 0.00 0.00 46 1015.0
20260830235001 74 312 1.0 3.0 0.00 0.00 0.00 45 1015.1
20260830234501 75 316 1.0 4.0 0.00 0.00 0.00 45 1015.2
20260830234000 75 311 0.0 4.0 0.00 0.00 0.00 45 1015.2
20260830233522 75 327 0.0 2.0 0.00 0.00 0.00 45 1015.3
20260830233001 75 316 0.0 2.0 0.00 0.00 0.00 45 1015.3
20260830232500 75 301 0.0 3.0 0.00 0.00 0.00 45 1015.3
20260830232001 75 294 0.0 4.0 0.00 0.00 0.00 44 1015.4
20260830231500 75 294 0.0 4.0 0.00 0.00 0.00 44 1015.4